Location: Six Mile Lake
(44.9000°N, 79.7170°W)
Time: 02:28:06
(UTC-04:00)

NOAA 18 - Pass Details

Date: 04 July 2022
Orbit: 839 x 860 km, 98.9° (Epoch: 15 August)

Event Time Altitude Azimuth Distance (km) Brightness Sun altitude
Exits shadow 23:07:59 19° 177° (S) 1,900 6.5 -15.6°
Maximum altitude 23:11:56 69° 257° (WSW) 918 5.4 -16.0°
Drops below altitude 10° 23:17:29 10° 341° (NNW) 2,504 8.9 -16.5°
Sets 23:19:54 0° 344° (NNW) 3,447 9.9 -16.7°
